Hourly Weather Roundup
Issued by NWS Central Illinois

Home | Current Version | Previous Version | Text Only | Print | Product List | Glossary On
Versions: 1 2 3 4 5 6 7 8 9 10 11 12 13 14 15 16 17 18 19 20 21 22 23 24 25 26 27 28 29 30 31 32 33 34 35 36 37 38 39 40 41 42 43 44 45 46 47 48 49 50
000
NZUS43 KILX 290310
HWRILX

AREA WEATHER ROUNDUP
NATIONAL WEATHER SERVICE, LINCOLN IL
1000 PM CDT FRI AUG 28 2015


CITY           SKY/WX    TMP DP  RH WIND       PRES   REMARKS
BLOOMINGTON    MOCLDY    69  60  73 SE10      30.05S
CHAMPAIGN      PTCLDY    65  60  84 SE6       30.06F
DANVILLE       CLOUDY    65  61  85 SE6       30.05F
DECATUR        MOCLDY    70  57  63 SE6       30.05S
EFFINGHAM      CLOUDY    67  58  74 E5        30.07S
FLORA          MOCLDY    65  60  84 CALM      30.06S
GALESBURG      CLOUDY    68  60  76 SE3       30.01R
JACKSONVILLE   CLOUDY    73  62  68 S7        30.02R
LACON          MOCLDY    68  60  75 SE8       30.01S
LAWRENCEVILLE  MOCLDY    68  61  78 E6        30.08R
LITCHFIELD     CLOUDY    68  60  74 SE7       30.02F
$$


CITY           SKY/WX    TMP DP  RH WIND       PRES   REMARKS
LINCOLN        CLOUDY    69  60  72 SE5       30.02S
MACOMB         CLOUDY    69  62  79 S5        30.02S
MATTOON        CLOUDY    67  58  72 SE5       30.05F HAZE
MT CARMEL AP   PTCLDY    68  61  77 SE3       30.07R
OLNEY-NOBLE AP PTCLDY    61  59  94 CALM      30.07S
PARIS          CLOUDY    67  60  78 SE6       30.08F
PEORIA         MOCLDY    72  59  63 SE8       30.01R
PONTIAC        MOCLDY    65  63  94 SE3       30.06R
RANTOUL        PTCLDY    66  61  84 SE7       30.06F
ROBINSON       PTCLDY    60  58  92 CALM      30.08S
SPRINGFIELD    CLOUDY    73  60  63 SE9       30.01F
TAYLORVILLE    CLOUDY    68  59  73 SE6       30.03S
$$

...REGIONAL REPORTS...


CITY           SKY/WX    TMP DP  RH WIND       PRES   REMARKS
CHICAGO O`HARE CLOUDY    70  63  78 E9        30.07F
KANKAKEE       CLOUDY    67  63  85 CALM      30.07F
MOLINE         CLOUDY    69  63  81 NE3       30.01R
MOUNT STERLING CLOUDY    68  62  82 S6        30.00S
MOUNT VERNON   MOCLDY    64  57  77 CALM      30.06S
PITTSFIELD     CLOUDY    71  63  76 SE3       30.02S
QUINCY         CLOUDY    71  63  75 S6        29.99R
ROCKFORD       LGT RAIN  68  60  75 E13       30.07R
$$


CITY           SKY/WX    TMP DP  RH WIND       PRES   REMARKS
BURLINGTON     CLOUDY    71  63  75 S10       29.98R
CEDAR RAPIDS   TSTM      65  65 100 SE13      29.94F
DES MOINES     CLOUDY    72  67  84 SE6       29.89S
KIRKSVILLE     CLOUDY    69  65  86 S5        29.97R
OTTUMWA        CLOUDY    70  65  84 S10       29.91R
ST LOUIS       CLOUDY    77  60  55 S7        30.03R
$$


CITY           SKY/WX    TMP DP  RH WIND       PRES   REMARKS
TERRE HAUTE    PTCLDY    64  59  83 E6        30.08S
EVANSVILLE     CLEAR     72  64  76 CALM      30.08R
INDIANAPOLIS   MOCLDY    69  57  65 SE7       30.09R
LAFAYETTE      CLOUDY    68  59  73 SE5       30.08S
MADISON        RAIN      64  62  93 E10       30.06F FOG
MILWAUKEE      CLOUDY    63  60  90 N7        30.11R FOG
$$





USA.gov is the U.S. government's official web portal to all federal, state and local government web resources and services.